Погода в Риле

Великобритания     53°19′05″N   3°29′32″W
темп.,
°C
ветер,
м/с
пор.,
м/с
влажн.,
%
обл.,
%
осадки,
мм/ч
давл.,
гПа
погр.,
м
11 мая, вт
вт1101:00+6ю4118231 0.0 1002623
04:00+4ююв369725 0.0 1003123
07:00+6ююв35850 0.0 1004137
10:00+12ююв36552 0.0 10051227
13:00+14ююв574727 0.1 10041960
16:00+12юв467462 1.4 10041297
19:00+10юв3586100 3.6 1003369
22:00+7ююз2295100 1.6 100449
12 мая, ср
ср1201:00+6ююз249530 2.0 100593
04:00+4ююз37979 0.0 1006165
07:00+6ююв2497100 0.5 1006125
10:00+8ю3892100 0.4 1007789
13:00+12ююз466851 1.0 10071288
16:00+14зюз2449100 0.4 10071792
19:00+11ссв2474100 0.6 1008329
22:00+7св1193100 0.0 100916
13 мая, чт
чт1301:00+6юз1192100 0.0 100913
04:00+7юв0086100 0.0 100918
07:00+8св1182100 0.0 100995
10:00+12в3564100 0.0 1009773
13:00+11ссв2472100 0.3 1009719
16:00+13с4565100 0.3 10081017
19:00+10с3783100 0.5 1009345
22:00+8юв2894100 0.8 1010202
14 мая, пт
пт1401:00+6вюв229887 0.8 101146
04:00+7св1297100 0.8 101171
07:00+8всв1395100 0.8 1012241
10:00+9в238764 0.0 1013562
13:00+13св325944 0.1 10121254
16:00+13ссв325939 0.2 10131099
19:00+11св116891 0.3 1012484
22:00+9ююв128180 0.0 101343
15 мая, сб
сб1501:00+6ююз2296100 0.0 101236
04:00+8ю2488100 0.0 101199
07:00+8ю2587100 0.0 1010149
10:00+12ююз3669100 0.1 10091076
13:00+13ююз3559100 0.3 10081336
16:00+12юз3569100 0.3 10071072
19:00+9ююв2588100 0.7 1006238
22:00+8ююв3689100 0.1 1006302